{"data":{"norad_id":57180,"intl_designator":"2023-091Q","name":"MONITOR-3 (RS58S)","alt_names":[],"object_type":"PAYLOAD","status":"ACTIVE","operator":null,"country":"CIS","launch_date":"2023-06-27","launch_site_code":"VOSTO","launch_vehicle":null,"mission":null,"orbit_class":"UNKNOWN","rcs_meters":null,"size_class":null,"mass_kg":null,"dimensions":null,"purposes":["comms"],"wikipedia_slug":null,"has_3d_model":false,"image_url":null,"decayed_at":null,"tle_current":{"epoch":"2026-05-25T04:56:52.300896Z","epoch_age_seconds":67792,"freshness":"FRESH","line1":"1 57180U 23091Q   26145.20616089  .00010506  00000+0  39469-3 0  9991","line2":"2 57180  97.5096 208.4912 0012205 173.3890 186.7512 15.27300669160787","mean_motion":15.27300669,"eccentricity":0.0012205,"inclination_deg":97.5096,"raan_deg":208.4912,"arg_perigee_deg":173.389,"mean_anomaly_deg":186.7512,"bstar":0.00039469,"rev_number":16078,"period_min":94.283989343293,"perigee_km":475.51054238486,"apogee_km":492.26073965159,"semimajor_km":6862.0226410182,"source":"CELESTRAK","updated_at":"2026-05-25T13:38:23.291430Z"}}}